Погода в Обшаровке

Россия / Самарская область     53°07′08″N   48°51′52″E
темп.,
°C
ветер,
м/с
пор.,
м/с
влажн.,
%
обл.,
%
осадки,
мм/ч
давл.,
гПа
погр.,
м
26 февраля, пт
пт2601:00−11ю5995100 0.7 1016433
04:00−12ююв4795100 1.2 1015220
07:00−13юв339698 0.3 101459
10:00−11ююв239594 0.5 1014171
13:00−9юв349296 0.1 1014386
16:00−8ююв469398 0.1 1013393
19:00−8юв61095100 0.8 1010352
22:00−6ююв61195100 3.9 1006410
27 февраля, сб
сб2701:00−2ю4897100 1.7 1001239
04:00+2з4119897 2.3 1001336
07:00+1зюз5119183 0.1 1000410
10:00+1зюз5109392 0.2 1001390
13:00+1юз510100100 0.1 1000385
16:00+1юз5109797 0.1 1000376
19:000юз499397 0.1 1000233
22:00−2юз4109396 0.2 999230
28 февраля, вс
вс2801:00−1юз4897100 0.3 999225
04:00−7сз5996100 2.0 1001313
07:00−10сз5994100 0.8 1002347
10:00−9ссз6993100 1.3 1004475
13:00−9ссз61091100 0.2 1006553
16:00−9ссз61089100 0.3 1008605
19:00−12ссз51091100 0.0 1010307
22:00−14ссз4109192 0.0 1013244
1 марта, пн
пн101:00−14ссз499292 0.0 1015301
04:00−17сз469384 0.0 1017122
07:00−20сз369460 0.0 101990
10:00−18ссз479161 0.0 1021332
13:00−15ссз468970 0.0 1022448
16:00−13ссз368984 0.0 1023505
19:00−17ссз339391 0.0 102436
22:00−19сз229347 0.0 102520
2 марта, вт
вт201:00−20зсз23940 0.0 102420
04:00−20юз23920 0.0 102320
07:00−19ююз349025 0.0 102239
10:00−14ююз589262 0.0 1019256
13:00−10юз61093100 0.1 1016392
16:00−6юз71293100 0.5 1012577
19:00−3юз51195100 0.9 1010526
22:00−4юз4994100 1.5 1009318